Regional Weather Roundup
Issued by NWS

Home | Current Version | Previous Version | Text Only | Print | Product List | Glossary Off
Versions: 1 2 3 4 5 6 7 8 9 10 11 12 13 14 15 16 17 18 19 20 21 22 23 24 25 26 27 28 29 30 31 32 33 34 35 36 37 38 39 40 41 42 43 44 45 46 47 48 49 50

000
ASUS43 KLOT 081803
RWRIL

ILLINOIS REGIONAL WEATHER ROUNDUP
NATIONAL WEATHER SERVICE CHICAGO/ROMEOVILLE IL
1200 PM CST MON FEB 08 2016

NOTE: "FAIR" INDICATES FEW OR NO CLOUDS BELOW 12,000 FEET WITH NO
SIGNIFICANT WEATHER AND/OR OBSTRUCTIONS TO VISIBILITY.

* THESE STATIONS ARE NOT UNDER NWS QUALITY CONTROL. THEY ALSO MAY NOT
  REPORT WEATHER SUCH AS PRECIPITATION OR FOG.

ILZ001-002-007-009-015-016-024-081900-
NORTHWEST ILLINOIS

CITY           SKY/WX    TMP DP  RH WIND       PRES   REMARKS
MOLINE         LGT SNOW  21  13  71 W18G30    29.80S WCI   6
6HR MIN TEMP:  20; 6HR MAX TEMP:  22; 6HR PCP: TRACE;

STERLING*      CLOUDY    25  16  68 NW18      29.73S WCI  11
$$

ILZ003-004-008-010-011-017-018-081900-
NORTH CENTRAL ILLINOIS

CITY           SKY/WX    TMP DP  RH WIND       PRES   REMARKS
ROCKFORD       CLOUDY    25  18  74 NW14      29.72S WCI  13
6HR MIN TEMP:  24; 6HR MAX TEMP:  28; 6HR PCP: TRACE;

FREEPORT*      CLOUDY    23  17  76 W15       29.74S WCI  10
DE KALB*       CLOUDY    26  21  82 W15       29.69S WCI  13
$$

ILZ005-006-012>014-019>023-081900-
NORTHEAST ILLINOIS

CITY           SKY/WX    TMP DP  RH WIND       PRES   REMARKS
CHICAGO-OHARE  FLURRIES  28  22  78 NW12      29.66S WCI  18
6HR MIN TEMP:  28; 6HR MAX TEMP:  32; 6HR PCP: TRACE;

CHICAGO-MIDWAY CLOUDY    31  20  63 W14       29.67S WCI  21
6HR MIN TEMP:  31; 6HR MAX TEMP:  33; 6HR PCP: TRACE;

AURORA         CLOUDY    27  20  75 NW16      29.70R WCI  15
6HR MIN TEMP:  27; 6HR MAX TEMP:  31;

LANSING*       CLOUDY    30  24  79 W15       29.68S WCI  19
WAUKEGAN       CLOUDY    29  24  82 NW12      29.64S WCI  19
6HR MIN TEMP:  28; 6HR MAX TEMP:  33;

DUPAGE AIRPORT CLOUDY    26  20  77 NW12      29.67F WCI  16
6HR MIN TEMP:  26; 6HR MAX TEMP:  31; 6HR PCP: TRACE;

WHEELING       CLOUDY    28  23  81 W10       29.68R WCI  19
6HR MIN TEMP:  28; 6HR MAX TEMP:  32; 6HR PCP: TRACE;

$$

LMZ740>746-081900-
SOUTHERN LAKE MICHIGAN

STATION/POSITION SKY/WX   TEMP    WIND        PRES    VSBY  WAVE
                          AIR SEA DIR/SP/G                  HT/PER
                          (F)     (DEG/KT/KT) (MB)    (MI)  (FT/S)
HARRISON CRIB              31     280/ 14/ 15   N/A
BURNHAM HARBOR             30     270/ 11/ 15   N/A
CALUMET HARBOR             31     270/  7/ 12 1004.1R
BURNS HARBOR               31     290/ 14/ 17 1005.1S
MICHIGAN CITY              31     240/ 16/ 17   N/A
$$

ILZ025>027-034>036-040-047-049-050-058-095>099-081900-
WEST-CENTRAL ILLINOIS

CITY           SKY/WX    TMP DP  RH WIND       PRES   REMARKS
QUINCY         LGT SNOW  19  12  74 NW22      29.89S WCI   2
MACOMB*        CLOUDY    20  15  79 NW22G30   29.86S WCI   4
$$

ILZ028>032-037-038-041>044-048-051>054-059>061-081900-
CENTRAL ILLINOIS

CITY           SKY/WX    TMP DP  RH WIND       PRES   REMARKS
BLOOMINGTON    LGT SNOW  22  18  85 W18       29.76S FOG     WCI   8
DECATUR        CLOUDY    25  15  66 NW21G26   29.78S WCI  11
PEORIA         LGT SNOW  21  14  74 NW15G23   29.80S VSB 1   WCI   8
6HR MIN TEMP:  21; 6HR MAX TEMP:  28; 6HR PCP:  0.01;

SPRINGFIELD    LGT SNOW  23  16  74 W20       29.82F VSB 3/4 WCI   8
6HR MIN TEMP:  23; 6HR MAX TEMP:  32; 6HR PCP: TRACE;

TAYLORVILLE    NOT AVBL
$$

ILZ033-039-045-046-055>057-062-063-081900-
EAST-CENTRAL ILLINOIS

CITY           SKY/WX    TMP DP  RH WIND       PRES   REMARKS
CHAMPAIGN      LGT SNOW  26  21  81 W21       29.74F WCI  12
MATTOON        CLOUDY    25  19  78 W24       29.76S HAZE    WCI   9
$$

ILZ079-100>102-081900-
SOUTHWEST ILLINOIS

CITY           SKY/WX    TMP DP  RH WIND       PRES   REMARKS
ALTON          LGT SNOW  25  19  80 NW15G24   29.87R WCI  12
CAHOKIA*       CLOUDY    30  13  49 NW24G38   29.88S WCI  16
SPARTA*        CLOUDY    31  19  59 NW13G21   29.87F WCI  22
$$

ILZ064>066-069>071-074>076-080>082-084>086-088>090-092>094-081900-
SOUTH-CENTRAL ILLINOIS

CITY           SKY/WX    TMP DP  RH WIND       PRES   REMARKS
CARBONDALE     FLURRIES  32  19  58 NW18G26   29.86R WCI  20
6HR MIN TEMP:  31; 6HR MAX TEMP:  36; 6HR PCP: TRACE;

MARION         LGT SNOW  30  25  80 NW21      29.87R WCI  17
MT. VERNON     CLOUDY    30  21  69 W9G24     29.83F WCI  22
CENTRALIA*     CLOUDY    30  24  77 NW18G28   29.83S WCI  18
SALEM*         LGT SNOW  29  23  77 NW17G30   29.83S WCI  17
$$

ILZ067-068-072-073-078-083-087-091-081900-
SOUTHEAST ILLINOIS

CITY           SKY/WX    TMP DP  RH WIND       PRES   REMARKS
LAWRENCEVILLE  LGT SNOW  31  25  78 NW21      29.77R WCI  18
HARRISBURG*    LGT SNOW  32  25  76 NW15      29.84S WCI  22
ROBINSON*      CLOUDY    29  22  76 NW18G30   29.78R WCI  16
CARMI*         LGT SNOW  30  28  92 W22G29    29.81R VSB 3/4 WCI  17
$$

ABBREVIATIONS USED IN REMARKS
   TC - TEMPERATURE IN CELSIUS
  WCI - WIND CHILL INDEX
   HX - HEAT INDEX
  VSB - VISIBILITY
$$




USA.gov is the U.S. government's official web portal to all federal, state and local government web resources and services.